Location: *
(40.7873°S, 98.7174°E)
Time: 21:16:12
(UTC+00:00)

Cosmos 1153 Rocket - Pass Details

Date: 10 October 2022
Orbit: 953 x 1007 km, 82.9° (Epoch: 05 December)

Event Time Altitude Azimuth Distance (km) Brightness Sun altitude
Rises 18:10:59 0° 179° (S) 3,679 8.3 -40.5°
Reaches altitude 10° 18:13:47 10° 169° (S) 2,721 7.5 -40.3°
Enters shadow 18:17:47 30° 134° (SE) 1,674 6.0 -40.0°
